[[{"header":{"parameterUnit":"m.s-1","parameterCategory":1,"la1":30.2991,"la2":30.254,"lo1":-89.0895,"lo2":-89.0444,"dy":0.0017,"dx":0.0017,"nx":28,"ny":28,"refTime":"2024-12-09T09:00:00:Z","depth":0,"parameterNumber":2,"parameterNumberName":"U-component_of_WINDS"},"data":[0,0,0,0,0,0,0,0,0,0,0,0,0,0,0,0,0,0,0,0,0,0,0,0,0,0,0,0,0,0,0,0,0,0,0,0,0,0,0,0,0,0,0,0,0,0,0,0,0,0,0,0,0,0,0,0,0,0,3.0158,3.0159,0,3.0198,3.0199,3.0199,3.0148,3.0146,3.0144,3.0142,3.0189,3.0192,3.0195,0,0,0,0,0,0,0,0,0,0,0,0,0,3.0046,3.0048,3.0158,3.0159,3.0159,3.0198,3.0199,3.0199,3.0148,3.0146,3.0144,3.0141,3.0188,3.0192,3.0195,0,0,0,0,0,0,0,0,0,0,0,0,0,3.0091,3.0049,3.0158,3.0138,3.0137,3.0198,3.0199,3.0199,3.0149,3.0146,3.0143,3.014,3.0187,3.0191,3.0196,3.028,0,0,3.021,3.0212,0,0,0,0,0,0,0,0,3.0089,3.0096,3.0141,3.014,3.0138,3.0165,3.0176,3.0227,3.0149,3.0144,3.0142,3.0139,3.0184,3.0188,3.0202,3.0282,3.0284,3.021,3.0213,3.0215,3.0216,0,0,0,0,0,0,0,3.0086,3.0094,3.0174,3.0142,3.014,3.013,3.0133,3.0186,3.018,3.0145,3.0141,3.0146,3.0183,3.0198,3.0203,3.0285,3.021,3.0214,3.0217,3.0218,3.0441,3.0444,0,0,0,0,0,0,3.0084,3.0091,3.0173,3.0175,3.0106,3.0134,3.0138,3.0159,3.0179,3.0179,3.0148,3.0144,3.0192,3.0198,3.0205,3.0307,3.0215,3.0219,3.0221,3.0438,3.0442,3.0445,0,0,0,0,0,0,3.0082,3.0092,3.0171,3.0132,3.0142,3.0139,3.0164,3.0162,3.0177,3.0182,3.0181,3.0165,3.019,3.0198,3.0262,3.0308,3.0221,3.0225,3.0434,3.0439,3.0443,3.0511,0,0,0,0,0,0,3.0079,3.0091,3.0121,3.0133,3.0144,3.0226,3.0166,3.0165,3.0184,3.0178,3.0197,3.0197,3.0188,3.0256,3.0267,3.0312,3.0229,3.043,3.0436,3.0442,3.0505,3.0518,3.0529,0,0,0,0,0,3.0075,3.0139,3.0123,3.0133,3.0181,3.0229,3.0235,3.0221,3.0188,3.022,3.0223,3.0197,3.0301,3.0263,3.0275,3.0322,3.0427,3.0434,3.0441,3.05,3.0515,3.0528,0,0,0,0,0,0,3.0133,3.014,3.0122,3.0192,3.021,3.022,3.0259,3.0238,3.0267,3.0261,3.0245,3.025,3.0319,3.0327,3.0284,3.0407,3.0359,3.0369,3.0399,3.0414,3.0426,3.0423,3.0232,0,0,0,0,0,3.0154,3.019,3.0195,3.0256,3.0266,3.0262,3.0282,3.027,3.0289,3.0297,3.0305,3.0326,3.0364,3.0389,3.0424,3.0506,3.0511,3.0545,3.0557,3.0567,3.0576,3.0624,3.064,3.0469,3.0469,3.0469,0,0,3.0198,3.0206,3.023,3.0268,3.0281,3.0322,3.0268,3.0312,3.0343,3.0304,3.0365,3.0372,3.0396,3.047,3.0503,3.0479,3.0624,3.0576,3.0584,3.0588,3.0633,3.0649,3.0663,3.0474,3.0473,3.0472,0,0,3.0299,3.0307,3.036,3.0374,3.0394,3.0391,3.0404,3.0418,3.0421,3.0481,3.0454,3.0492,3.0556,3.0575,3.0593,3.0704,3.0682,3.0716,3.0779,3.0825,3.0839,3.0851,3.0893,3.0908,3.0725,3.0725,3.0726,0,3.0351,3.0408,3.0391,3.0438,3.0457,3.0422,3.0478,3.0493,3.0524,3.054,3.0512,3.0595,3.0608,3.0687,3.0715,3.073,3.0747,3.0714,3.0838,3.085,3.0861,3.0901,3.0917,3.073,3.0729,3.0729,3.0728,0,3.0473,3.0514,3.0555,3.0585,3.0609,3.066,3.0653,3.068,3.0667,3.0668,3.0733,3.0747,3.0786,3.0804,3.0792,3.0884,3.0868,3.084,3.0791,3.0881,3.0919,3.0934,3.0735,3.0734,3.0733,3.0732,0,0,3.061,3.0631,3.0647,3.0661,3.0682,3.0714,3.0766,3.0802,3.0827,3.085,3.0895,3.0952,3.0927,3.0947,3.0938,3.0978,3.107,3.0945,3.0946,3.097,3.1175,3.1198,3.1215,3.1055,3.1058,3.106,3.1174,0,3.0712,3.0799,3.0786,3.0871,3.091,3.088,3.0925,3.0945,3.0948,3.0984,3.0988,3.103,3.0991,3.1004,3.1043,3.105,3.1111,3.1042,3.11,3.1102,3.1096,3.1235,3.1258,3.1364,3.1188,3.1191,3.1193,0,3.0842,3.087,3.0958,3.0975,3.0991,3.1032,3.1066,3.11,3.1123,3.1123,3.1148,3.1132,3.1187,3.1137,3.1215,3.1169,3.1192,3.12,3.1204,3.121,3.1153,3.1246,3.1397,3.1414,3.1215,3.1214,3.1212,0,3.0936,3.0995,3.1056,3.1069,3.109,3.112,3.1131,3.1151,3.1175,3.1206,3.1222,3.126,3.1281,3.1313,3.1309,3.1272,3.139,3.1339,3.1394,3.1395,3.1421,3.1419,3.158,3.1434,3.1434,3.1433,3.1433,0,3.1052,3.1108,3.1099,3.1137,3.12,3.1187,3.125,3.1258,3.1276,3.1318,3.1294,3.1334,3.1326,3.1367,3.1365,3.1432,3.1442,3.1446,3.1445,3.1448,3.1448,3.1464,3.1457,3.1438,3.1437,3.1436,3.1435,0,3.1167,3.1163,3.1228,3.1243,3.1248,3.1294,3.1309,3.1346,3.1348,3.1401,3.1413,3.1417,3.1465,3.1464,3.1518,3.1517,3.16,3.159,3.1592,3.159,3.1646,3.1642,3.1823,3.1848,3.1685,3.1687,3.1688,0,3.1241,3.1283,3.1303,3.1328,3.1341,3.1381,3.1406,3.1396,3.1423,3.1454,3.1489,3.1534,3.1569,3.1647,3.1657,3.17,3.1692,3.1753,3.1698,3.1701,3.1695,3.1693,3.1699,3.1763,3.1765,3.1767,3.1768,0,3.1374,3.1371,3.1405,3.1441,3.1471,3.1498,3.1524,3.1547,3.154,3.1573,3.162,3.1647,3.1703,3.1749,3.1791,3.1805,3.1788,3.1785,3.1801,3.1805,3.1805,3.1808,3.1622,3.1781,3.178,3.1779,3.1778,3.1777,3.1472,3.151,3.153,3.1571,3.1589,3.1614,3.1651,3.1658,3.1696,3.1739,3.1732,3.1786,3.1813,3.1867,3.1885,3.193,3.1909,3.193,3.1936,3.1942,3.1949,3.1798,3.1937,3.1937,3.1937,3.1936,3.1936,0,3.1606,3.1618,3.1656,3.1692,3.1725,3.1703,3.1731,3.1762,3.1808,3.1833,3.1869,3.1926,3.1971,3.1986,3.2031,3.2064,3.2058,3.2077,3.2075,3.2079,3.1964,3.1947,3.2082,3.2082,3.2082,3.2082,3.2082,3.2082,3.1679,3.1742,3.1742,3.1815,3.1827,3.1878,3.1897,3.1922,3.1942,3.2005,3.2042,3.2051,3.2073,3.2121,3.2163,3.2167,3.2185,3.2209,3.2209,3.2102,3.2087,3.2073,3.2057,3.2212,3.2213,3.232,3.2321,3.2322]},{"header":{"parameterUnit":"m.s-1","parameterCategory":1,"la1":30.2991,"la2":30.254,"lo1":-89.0895,"lo2":-89.0444,"dy":0.0017,"dx":0.0017,"nx":28,"ny":28,"refTime":"2024-12-09T09:00:00:Z","depth":0,"parameterNumber":3,"parameterNumberName":"V-component_of_WINDS"},"data":[0,0,0,0,0,0,0,0,0,0,0,0,0,0,0,0,0,0,0,0,0,0,0,0,0,0,0,0,0,0,0,0,0,0,0,0,0,0,0,0,0,0,0,0,0,0,0,0,0,0,0,0,0,0,0,0,0,0,2.0837,2.0842,0,2.1339,2.1345,2.1351,2.1469,2.1466,2.1463,2.1459,2.1977,2.1994,2.2011,0,0,0,0,0,0,0,0,0,0,0,0,0,1.9978,1.9993,2.0836,2.0842,2.0849,2.1338,2.1345,2.1352,2.147,2.1466,2.1462,2.1458,2.1972,2.1992,2.2012,0,0,0,0,0,0,0,0,0,0,0,0,0,2.0402,1.9998,2.0835,2.0967,2.0983,2.1337,2.1345,2.1354,2.1471,2.1466,2.1461,2.1456,2.1965,2.199,2.2015,2.2274,0,0,2.2093,2.2104,0,0,0,0,0,0,0,0,2.0378,2.0434,2.0941,2.0958,2.0978,2.1336,2.1233,2.1663,2.1472,2.1286,2.1459,2.1453,2.1768,2.181,2.1915,2.2299,2.2321,2.2095,2.211,2.2121,2.2129,0,0,0,0,0,0,0,2.0349,2.0413,2.1035,2.0948,2.0971,2.1,2.1055,2.1315,2.155,2.1302,2.1312,2.1369,2.1777,2.189,2.1928,2.2328,2.2094,2.2117,2.2133,2.2142,2.2945,2.2951,0,0,0,0,0,0,2.0296,2.0388,2.1019,2.105,2.0659,2.102,2.1081,2.1226,2.1547,2.1591,2.1373,2.1373,2.185,2.1898,2.1947,2.227,2.2121,2.2145,2.216,2.2939,2.2946,2.2953,0,0,0,0,0,0,2.0277,2.0351,2.0999,2.0722,2.0807,2.104,2.1202,2.1239,2.1352,2.1601,2.1644,2.1445,2.1847,2.1911,2.2191,2.2289,2.2156,2.218,2.2932,2.2941,2.295,2.2917,0,0,0,0,0,0,2.0252,2.0344,2.0446,2.0723,2.0821,2.1235,2.1209,2.1252,2.1395,2.14,2.168,2.1722,2.1848,2.2152,2.2216,2.2322,2.2199,2.2924,2.2936,2.2947,2.2911,2.2924,2.2936,0,0,0,0,0,2.0221,2.0418,2.045,2.0526,2.0953,2.124,2.1296,2.1437,2.1403,2.1506,2.1665,2.1713,2.2267,2.218,2.2253,2.2368,2.2919,2.2933,2.2946,2.2905,2.2922,2.2935,0,0,0,0,0,0,2.0149,2.0457,2.0496,2.0789,2.0987,2.126,2.1395,2.145,2.1664,2.1659,2.1825,2.1887,2.2155,2.229,2.2187,2.2633,2.2592,2.2621,2.2536,2.2554,2.2566,2.2529,2.2221,0,0,0,0,0,2.0166,2.0373,2.0632,2.0865,2.0962,2.1161,2.1292,2.1382,2.1595,2.168,2.186,2.2064,2.2284,2.2427,2.2643,2.2929,2.2991,2.3044,2.3056,2.3065,2.3089,2.3247,2.3273,2.2997,2.2997,2.2997,0,0,2.0206,2.04,2.0521,2.0855,2.102,2.123,2.1231,2.1455,2.1613,2.1715,2.1989,2.2127,2.2366,2.2649,2.2783,2.2769,2.3178,2.3083,2.3088,2.3108,2.3264,2.3289,2.3312,2.3007,2.3005,2.3004,0,0,2.0385,2.0553,2.0764,2.0928,2.1175,2.1305,2.1355,2.1619,2.1714,2.1991,2.2071,2.226,2.2636,2.2803,2.2936,2.3171,2.3222,2.3237,2.3303,2.3455,2.3477,2.3497,2.3579,2.3607,2.3259,2.3259,2.3259,0,2.0403,2.0724,2.0866,2.1086,2.1229,2.1327,2.1541,2.1693,2.1999,2.2095,2.2075,2.2546,2.2715,2.3036,2.3092,2.3198,2.3259,2.3207,2.3462,2.3484,2.3505,2.3585,2.3616,2.3259,2.3259,2.3259,2.3259,0,2.0733,2.0953,2.1094,2.1384,2.1543,2.1759,2.1933,2.2077,2.2151,2.2282,2.2561,2.2765,2.3023,2.3106,2.3183,2.3438,2.3421,2.3429,2.3392,2.3528,2.3607,2.3639,2.3259,2.3259,2.3259,2.3259,0,0,2.0885,2.1247,2.1296,2.1427,2.1705,2.1878,2.2096,2.2346,2.2465,2.2671,2.2857,2.317,2.3178,2.3329,2.3425,2.3558,2.3728,2.3551,2.3559,2.3576,2.4019,2.4011,2.4045,2.3762,2.3769,2.3774,2.3998,0,2.1098,2.1491,2.1623,2.1949,2.2152,2.2245,2.2435,2.2625,2.2752,2.2943,2.3083,2.3302,2.3297,2.3388,2.3524,2.3679,2.382,2.3664,2.3937,2.3945,2.3875,2.4086,2.408,2.4282,2.403,2.4036,2.4039,0,2.1401,2.1608,2.1953,2.22,2.2291,2.2459,2.2696,2.2878,2.3094,2.3177,2.3342,2.3426,2.3656,2.3602,2.392,2.3811,2.393,2.4022,2.4033,2.4065,2.4001,2.4123,2.4351,2.438,2.4089,2.4085,2.4082,0,2.1475,2.1841,2.2094,2.2203,2.2499,2.2614,2.2743,2.2953,2.3093,2.3301,2.3393,2.3624,2.3751,2.3928,2.4071,2.4019,2.4375,2.4334,2.445,2.4446,2.4523,2.4516,2.4772,2.4598,2.4597,2.4596,2.4596,0,2.17,2.1907,2.213,2.2286,2.2519,2.2668,2.2895,2.3029,2.3214,2.3396,2.3491,2.366,2.3839,2.4031,2.4144,2.4388,2.4445,2.4518,2.4546,2.4511,2.4501,2.4592,2.4581,2.4605,2.4603,2.4601,2.46,0,2.1824,2.1982,2.2263,2.2518,2.2587,2.2748,2.2966,2.312,2.3248,2.3477,2.3539,2.3742,2.3972,2.4131,2.4428,2.4503,2.4767,2.4794,2.4694,2.4708,2.4814,2.4802,2.5138,2.5189,2.4979,2.4981,2.4982,0,2.1957,2.2118,2.2389,2.2517,2.2645,2.285,2.2993,2.3143,2.3288,2.3542,2.3665,2.39,2.4098,2.446,2.4634,2.4859,2.4892,2.4994,2.4927,2.4884,2.4893,2.4881,2.4897,2.5004,2.5006,2.5007,2.5008,0,2.2176,2.2245,2.2447,2.2674,2.2841,2.3028,2.3216,2.3315,2.3498,2.3655,2.3891,2.4043,2.4343,2.4575,2.4817,2.4949,2.5009,2.5027,2.5066,2.5032,2.4967,2.5002,2.4722,2.502,2.5018,2.5018,2.5017,2.5017,2.231,2.2455,2.2667,2.2887,2.3043,2.3216,2.3371,2.3517,2.3716,2.3971,2.4047,2.4291,2.4499,2.4829,2.4964,2.5156,2.5148,2.5205,2.5219,2.5231,2.5229,2.4934,2.52,2.52,2.52,2.52,2.52,0,2.2533,2.2672,2.2873,2.3131,2.3303,2.3342,2.355,2.3692,2.3905,2.4093,2.4283,2.4551,2.4776,2.4964,2.5196,2.5313,2.5346,2.5369,2.5363,2.5392,2.5223,2.5166,2.5338,2.5338,2.5338,2.5338,2.5338,2.5338,2.2669,2.2917,2.301,2.3335,2.3474,2.3712,2.3828,2.3986,2.4137,2.4431,2.4617,2.4738,2.4926,2.5171,2.5378,2.5427,2.5508,2.5524,2.558,2.542,2.5404,2.5389,2.5336,2.5541,2.5541,2.5732,2.5734,2.5735]}]]